Simultaneous Nadir Overpasses (SNOs) Predictions

Prediction of SNOs between METOP-A and TERRA Satellite Orbit:

Table of predicted SNOs for the next 14.0 days since TLE Epoch: 1/25/2014
Index Date (METOP-A) Time (METOP-A) Lat,Lon (METOP-A) SZA (METOP-A ) Date (TERRA) Time (TERRA) Lat,Lon (TERRA) SZA (TERRA ) Distance(km) Time Diff (sec)
1 01/26/2014 15:00:49 -81.33,-177.56 77.69 01/26/2014 15:01:15 -81.33,-177.70 77.69 2.50 26
2 01/26/2014 15:51:30 81.34, -10.14 102.32 01/26/2014 15:50:41 81.34, -10.00 102.31 2.45 49
3 01/29/2014 10:35:09 -81.34,-111.00 78.42 01/29/2014 10:35:26 -81.34,-111.17 78.43 2.83 17
4 01/29/2014 11:25:50 81.34, 56.39 101.58 01/29/2014 11:24:52 81.34, 56.50 101.57 2.00 58
5 02/01/2014 06:09:29 -81.33, -44.89 79.24 02/01/2014 06:09:36 -81.33, -44.79 79.23 1.68 7
6 02/
